Location: Blazny
(46.0612°N, 84.4033°W)
Time: 20:58:18
(UTC-04:00)

Envisat - Pass Details

Date: 18 September 2024
Orbit: 762 x 764 km, 98.3° (Epoch: 11 October)

Event Time Altitude Azimuth Distance (km) Brightness Sun altitude
Rises 03:15:36 0° 34° (NE) 3,235 7.2 -37.1°
Reaches altitude 10° 03:19:41 10° 66° (ENE) 2,302 6.0 -36.7°
Maximum altitude 03:21:24 12° 86° (E) 2,187 5.7 -36.5°
Enters shadow 03:22:11 11° 96° (E) 2,209 5.6 -36.4°
